This is the latest recevied weather packets stored in our database for station/object HB9CJD-1. If no packets are shown the sender has not sent any weather packets the latest 10 day(s).
| Time | Temp. | Humidity | Pressure | Rain* | Wind** | Luminosity | Snow |
|---|---|---|---|---|---|---|---|
| 1777834686 | 16.11° C | 58% | 1017.5 hPa | - | - | - | - |
| 1777834083 | 16.67° C | 57% | 1017.6 hPa | - | - | - | - |
| 1777834083 | 16.67° C | 57% | 1017.6 hPa | - | - | - | - |
| 1777833480 | 16.67° C | 56% | 1017.5 hPa | - | - | - | - |
| 1777833480 | 16.67° C | 56% | 1017.5 hPa | - | - | - | - |
| 1777832877 | 16.67° C | 54% | 1017.4 hPa | - | - | - | - |
| 1777832876 | 16.67° C | 54% | 1017.4 hPa | - | - | - | - |
| 1777832273 | 16.67° C | 55% | 1017.3 hPa | - | - | - | - |
| 1777832273 | 16.67° C | 55% | 1017.3 hPa | - | - | - | - |
| 1777831670 | 17.22° C | 53% | 1017.1 hPa | - | - | - | - |
| 1777831670 | 17.22° C | 53% | 1017.1 hPa | - | - | - | - |
| 1777831067 | 17.22° C | 54% | 1017.2 hPa | - | - | - | - |
| 1777831067 | 17.22° C | 54% | 1017.2 hPa | - | - | - | - |
| 1777830464 | 16.67° C | 53% | 1017.1 hPa | - | - | - | - |
| 1777830463 | 16.67° C | 53% | 1017.1 hPa | - | - | - | - |
| 1777829860 | 16.67° C | 55% | 1017.2 hPa | - | - | - | - |
| 1777829860 | 16.67° C | 55% | 1017.2 hPa | - | - | - | - |
| 1777829257 | 16.11° C | 57% | 1017.2 hPa | - | - | - | - |
| 1777829257 | 16.11° C | 57% | 1017.2 hPa | - | - | - | - |
| 1777828654 | 15.56° C | 59% | 1017.1 hPa | - | - | - | - |
| 1777828654 | 15.56° C | 59% | 1017.1 hPa | - | - | - | - |
| 1777828050 | 15.56° C | 61% | 1017.3 hPa | - | - | - | - |
| 1777828050 | 15.56° C | 61% | 1017.3 hPa | - | - | - | - |
| 1777827448 | 15.56° C | 60% | 1017.2 hPa | - | - | - | - |
| 1777827447 | 15.56° C | 60% | 1017.2 hPa | - | - | - | - |
* Rain since midnight (hover to see other rain measurements)
** Current wind speed in m/s (hover to see current wind gust speed)